Regional Weather Roundup
Issued by NWS Bismarck, ND

Home | Current Version | Previous Version | Text Only | Print | Product List | Glossary On
Versions: 1 2 3 4 5 6 7 8 9 10 11 12 13 14 15 16 17 18 19 20 21 22 23 24 25 26 27 28 29 30 31 32 33 34 35 36 37 38 39 40 41 42 43 44 45 46 47 48 49 50
000
ASUS43 KBIS 021210
RWRBIS

NWR BROADCAST TEXT
NATIONAL WEATHER SERVICE BISMARCK ND
700 AM CDT WED SEP 02 2015

NOTE: "FAIR" INDICATES FEW OR NO CLOUDS BELOW 12,000 FEET WITH NO
SIGNIFICANT WEATHER AND/OR OBSTRUCTIONS TO VISIBILITY.


CITY           SKY/WX    TMP DP  RH WIND       PRES   REMARKS
WILLISTON      CLEAR     56  45  66 NE3       29.77S
MINOT          PTCLDY    61  59  93 S3        29.78R FOG
MINOT AFB      NOT AVBL
BISMARCK       CLEAR     61  60  97 NE3       29.80S FOG
DICKINSON      CLEAR     56  51  84 E6        29.79S
GARRISON         N/A     58  57  97 CALM      29.80R
HETTINGER ARPT PTCLDY    47  45  93 W6        29.83R
JAMESTOWN      CLEAR     63  61  93 SE7       29.82S FOG
HAZEN          FOG       55  55 100 CALM      29.81S VSB<1/4
STANLEY        FAIR      55  55 100 CALM      29.81S
$$

CITY           SKY/WX    TMP DP  RH WIND       PRES   REMARKS
GRAND FORKS    FOG       66  66 100 S9        29.81F VSB 1/4
GRAND FORKS AF FOG       66  66 100 S7        29.82S VSB 1/4
DEVILS LAKE    CLEAR     66  61  82 SE6       29.79S
FARGO          CLEAR     69  64  84 SE13      29.84R
GRAFTON        FAIR      61  61 100 SE5       29.82S FOG
GWINNER          N/A     63  63 100 E5        29.82S
LANGDON        FAIR      66  64  94 S8        29.83R
$$

CITY           SKY/WX    TMP DP  RH WIND       PRES   REMARKS
ABERDEEN       FOG       61  61 100 CALM      29.80R VSB 1/2
MOBRIDGE       FOG       60  59  96 CALM      29.77S VSB 1/2
BUFFALO          N/A     63  54  72 CALM      29.76S
RAPID CITY     MOCLDY    58  48  69 NW6       29.84F
GLASGOW        CLEAR     60  40  47 E16       29.67F
SIDNEY         CLEAR     52  43  71 CALM      29.75S
WOLF POINT     CLEAR     52  43  71 E6        29.72F
GLENDIVE       CLEAR     57  41  54 NE5       29.76R
MILES CITY     CLEAR     61  44  53 E5        29.72F
BAKER          CLEAR     57  52  83 SE7       29.80S
$$

CITY           SKY/WX    TMP DP  RH WIND       PRES   REMARKS
BILLINGS       MOCLDY    58  37  45 SW10      29.78R
GREAT FALLS    PTCLDY    53  33  46 SW7       29.72S
REGINA         PTCLDY    52  45  76 E12       29.75F
ESTEVAN        PTCLDY    52  45  76 E7        29.79S
$$



USA.gov is the U.S. government's official web portal to all federal, state and local government web resources and services.